Delta Virtual Airport Information Service

Montego Bay Sangster International Airport

ICAO: MKJS Country: Jamaica
Latitude: 18.5037 Longitude: -77.9133
Latest Arrival : DAC5282 (KPHL-MKJS) Latest Departure : DAC1040 (MKJS-KJFK)


WX CaptureLIVE
Data provided by noaa.gov | Fetched at 03:21:50

METAR : MKJS 300800Z VRB02KT 9999 FEW022 24/21 Q1013

TAF : MKJS 300800Z VRB02KT 9999 FEW022 24/21 Q1013


Runway Data for MKJS
Data provided by openaviationdata.com

Runway ID Mag Var Hdg Length Elevation Surface ILS Freq ILS Id ILS Slope
7 -5 70° 8738 ft 7 ft Asphalt 109.5 ISIA 3
25 -5 250° 8738 ft 7 ft Asphalt -- -- --

Montego Bay Sangster International Airport, Jamaica
Use only for reference purposes



Not for navigational purposes.